Weather History for Milton, FL

Change the Weather History Date:

Thursday, September 26, 2013

  Actual Average (KNSE) Record (KNSE)
Temperature  
Mean Temperature 76 °F -  
Max Temperature 88 °F 81 °F 91 °F (2011)
Min Temperature 66 °F 64 °F 51 °F (2000)
Cooling Degree Days 12    
Growing Degree Days 26 (Base 50)    
Moisture  
Dew Point 68 °F    
Average Humidity 78    
Maximum Humidity 93    
Minimum Humidity 51    
Precipitation  
Precipitation 0.00 in - - ()
Sea Level Pressure  
Sea Level Pressure 29.86 in    
Wind  
Wind Speed 4 mph (NNE)    
Max Wind Speed 10 mph    
Max Gust Speed -    
Visibility 10 miles    
Events      
Averages and records for this station are not official NWS values.
T = Trace of Precipitation, MM = Missing Value Source: NWS Daily Summary

Daily Weather History Graph

Daily Weather History Graph

Search for Another Location

Airport:

Trip Planner

Search our weather history database for the weather conditions in past years. The results will help you decide how hot, cold, wet, or windy it might be!

Date:

Astronomy

Sep. 26, 2013 Rise Set
Actual Time 6:38 AM CDT 6:39 PM CDT
Civil Twilight 6:14 AM CDT 7:03 PM CDT
Nautical Twilight 5:46 AM CDT 7:31 PM CDT
Astronomical Twilight 5:18 AM CDT 7:59 PM CDT
Moon 11:56 PM CDT (9/26) 1:10 PM CDT (9/26)
Length of Visible Light 12h 48m
Length of Day
12h 00m
Waning Gibbous, 54% of the Moon is Illuminated
Sep 26
Waning Gibbous
Sep 26
Last Quarter
Oct 4
New
Oct 11
First Quarter
Oct 18
Full

Hourly Weather History & Observations

Time (CDT) Temp. Heat Index Dew Point Humidity Pressure Visibility Wind Dir Wind Speed Gust Speed Precip Events Conditions
12:56 AM 69.1 °F - 66.9 °F 93% 29.78 in 10.0 mi North 3.5 mph - N/A   Clear
1:56 AM 66.0 °F - 64.0 °F 93% 29.78 in 9.0 mi Calm Calm - N/A   Clear
2:56 AM 66.9 °F - 64.9 °F 93% 29.78 in 9.0 mi Calm Calm - N/A   Clear
3:56 AM 66.9 °F - 64.9 °F 93% 29.79 in 8.0 mi Calm Calm - N/A   Clear
4:56 AM 66.0 °F - 64.0 °F 93% 29.81 in 8.0 mi Calm Calm - N/A   Clear
5:56 AM 66.0 °F - 64.0 °F 93% 29.82 in 4.0 mi NNW 3.5 mph - N/A   Clear
6:56 AM 66.0 °F - 64.0 °F 93% 29.84 in 10.0 mi NNW 3.5 mph - N/A   Partly Cloudy
7:56 AM 73.0 °F - 69.1 °F 87% 29.86 in 10.0 mi North 4.6 mph - N/A   Partly Cloudy
8:48 AM 75.2 °F - 71.6 °F 89% 29.92 in 10.0 mi NE 3.5 mph - N/A   Scattered Clouds
8:56 AM 75.9 °F - 71.1 °F 85% 29.88 in 10.0 mi NE 3.5 mph - N/A   Scattered Clouds
9:56 AM 79.0 °F - 71.1 °F 77% 29.89 in 10.0 mi NE 5.8 mph - N/A   Partly Cloudy
10:56 AM 82.9 °F 87.5 °F 71.1 °F 67% 29.89 in 10.0 mi NNE 5.8 mph - N/A   Partly Cloudy
11:56 AM 84.0 °F 88.4 °F 70.0 °F 63% 29.88 in 10.0 mi NE 5.8 mph - N/A   Scattered Clouds
12:56 PM 84.9 °F 89.4 °F 70.0 °F 61% 29.87 in 10.0 mi ENE 6.9 mph - N/A   Scattered Clouds
1:56 PM 84.9 °F 88.2 °F 68.0 °F 57% 29.85 in 10.0 mi NE 4.6 mph - N/A   Scattered Clouds
2:56 PM 87.1 °F 90.6 °F 68.0 °F 53% 29.84 in 10.0 mi North 8.1 mph - N/A   Scattered Clouds
3:56 PM 86.0 °F 88.2 °F 66.0 °F 51% 29.84 in 10.0 mi North 6.9 mph - N/A   Scattered Clouds
4:56 PM 84.0 °F 87.0 °F 68.0 °F 58% 29.84 in 10.0 mi NE 10.4 mph - N/A   Scattered Clouds
5:56 PM 81.0 °F 83.8 °F 68.0 °F 65% 29.86 in 10.0 mi NNE 8.1 mph - N/A   Scattered Clouds
6:56 PM 77.0 °F - 69.1 °F 76% 29.87 in 10.0 mi NNE 8.1 mph - N/A   Scattered Clouds
7:56 PM 75.0 °F - 68.0 °F 79% 29.89 in 10.0 mi ENE 4.6 mph - N/A   Scattered Clouds
8:56 PM 73.9 °F - 66.9 °F 79% 29.91 in 10.0 mi NE 3.5 mph - N/A   Partly Cloudy
9:56 PM 70.0 °F - 66.9 °F 90% 29.92 in 10.0 mi Calm Calm - N/A   Partly Cloudy
10:56 PM 71.1 °F - 66.9 °F 87% 29.93 in 10.0 mi ENE 4.6 mph - N/A   Partly Cloudy
11:56 PM 70.0 °F - 66.0 °F 87% 29.93 in 10.0 mi ENE 5.8 mph - N/A   Clear